Вернуться в каталог

COSMOS 1823 DEB

АктивенLEO
NORAD 18753·DEBRIS·🇷🇺 Russia

Запущен Feb 20, 1987 с Plesetsk Cosmodrome

Loading…

Ближайшие Пролёты (ближайшие 24 часа)

TLE

СвежийSource: Space-Track

Эпоха: Sep 14, 2026, 05:45 UTC

1 18753U 87020AE  26257.23996612  .00000123  00000-0  98062-3 0  9995
2 18753  73.4499 355.8850 0025125 269.5259 115.4592 12.45861724760043

Отслеживайте COSMOS 1823 DEB в реальном времени с AllMySat

Download on the App Store